Home   Weather   Adelaide   Past weeks

Flag for Australia Past Weather in Adelaide, South Australia, Australia — Yesterday and Last 2 Weeks

63 °F

Passing clouds.

Feels Like: 63 °F
Forecast: 53 / 82 °F
Wind: 12 mph from Southwest

Location: Adelaide Airport

Current Time: Oct 28, 2016 at 1:17:50 PM

Latest Report: Oct 28, 2016 at 12:30 PM

Visibility: N/A

Pressure: 30.09 "Hg

Humidity: 64%

Dew Point: 50 °F

Location of AdelaideLocation

Past Weather in Adelaide — Graph


Adelaide Temperature Yesterday

Maximum temperature yesterday: 68 °F (at 5:00 PM)
Minimum temperature yesterday: 50 °F (at 4:30 AM)
Average temperature yesterday: 58 °F

High & Low Weather Summary for the Past Weeks

High86 °F (Oct 20, 3:30 PM)94% (Oct 17, 11:18 PM)30.39 "Hg (Oct 17, 11:18 PM)
Low43 °F (Oct 24, 4:30 AM)12% (Oct 15, 4:32 PM)29.53 "Hg (Oct 15, 10:30 PM)
Average59 °F58%30.02 "Hg
* Reported Oct 13 11:30 AM — Oct 28 12:00 PM, Adelaide, Weather by CustomWeather, © 2016

Note: Actual official high and low records may vary slightly from our data, if they occured in-between our weather recording intervals... More about our weather records


Adelaide Weather History for the Previous 24 Hours

Scroll right to see more
Time TempWeatherWind HumidityBarometerVisibility
12:00 PM
Fri, Oct 28
61 °FPassing clouds.10 mph63%30.09 "HgN/A
11:30 AM61 °FPassing clouds.9 mph68%30.12 "HgN/A
11:00 AM61 °FPassing clouds.8 mph63%30.12 "HgN/A
10:30 AM59 °FPassing clouds.8 mph68%30.12 "HgN/A
10:00 AM59 °FPassing clouds.7 mph68%30.12 "HgN/A
9:30 AM59 °FPassing clouds.6 mph63%30.12 "HgN/A
9:00 AM59 °FSunny.5 mph59%30.12 "Hg10 mi
8:30 AM57 °FSunny.6 mph67%30.12 "Hg10 mi
7:30 AM54 °FSunny.3 mph67%30.09 "Hg10 mi
7:00 AM50 °FSunny.7 mph76%30.09 "Hg10 mi
6:30 AM48 °FClear.8 mph82%30.07 "Hg10 mi
5:30 AM48 °FClear.5 mph82%30.07 "Hg10 mi
5:00 AM48 °FClear.3 mph82%30.07 "Hg10 mi
4:30 AM48 °FClear.3 mph82%30.07 "Hg10 mi
4:00 AM48 °FClear.5 mph82%30.07 "Hg10 mi
3:30 AM48 °FClear.5 mph87%30.07 "Hg10 mi
3:00 AM48 °FClear.No wind87%30.07 "Hg10 mi
2:30 AM48 °FClear.No wind82%30.07 "Hg10 mi
2:00 AM50 °FClear.No wind82%30.09 "Hg10 mi
1:30 AM50 °FClear.No wind76%30.09 "Hg10 mi
1:00 AM50 °FClear.No wind76%30.09 "Hg10 mi
12:30 AM52 °FClear.No wind77%30.09 "Hg10 mi
12:00 AM52 °FClear.2 mph72%30.09 "Hg10 mi
11:30 PM
Thu, Oct 27
52 °FClear.5 mph77%30.12 "Hg10 mi
11:00 PM54 °FClear.3 mph67%30.12 "Hg10 mi
10:30 PM54 °FClear.5 mph67%30.12 "Hg10 mi
10:00 PM54 °FClear.8 mph67%30.12 "Hg10 mi
9:30 PM55 °FClear.7 mph63%30.12 "Hg10 mi
9:00 PM57 °FClear.8 mph59%30.09 "Hg10 mi
8:30 PM57 °FClear.8 mph63%30.09 "Hg10 mi
8:00 PM59 °FSunny.10 mph55%30.09 "Hg10 mi
7:30 PM63 °FMild.12 mph49%30.07 "HgN/A
7:00 PM63 °FSunny.14 mph49%30.07 "Hg10 mi
6:30 PM66 °FSunny.14 mph43%30.07 "Hg10 mi
6:00 PM66 °FSunny.14 mph40%30.04 "Hg10 mi
5:30 PM68 °FPassing clouds.10 mph38%30.04 "HgN/A
5:00 PM68 °FPassing clouds.10 mph46%30.07 "HgN/A
4:30 PM64 °FPassing clouds.17 mph60%30.07 "HgN/A
4:00 PM64 °FPassing clouds.20 mph52%30.07 "HgN/A
3:30 PM64 °FPassing clouds.18 mph52%30.07 "HgN/A
3:00 PM64 °FPassing clouds.18 mph56%30.09 "HgN/A
2:30 PM64 °FPassing clouds.18 mph52%30.09 "HgN/A
2:00 PM64 °FPassing clouds.15 mph52%30.12 "HgN/A
1:30 PM64 °FPassing clouds.16 mph52%30.12 "HgN/A
1:00 PM64 °FScattered clouds.8 mph52%30.12 "HgN/A
Weather by CustomWeather, © 2016

See weather overviewHow to use our weather pages